SCP
0 0 0 0 0 0 0 0 0 0 0 0 0 0 0 0 0 0 0 1 1 0 0 0 0 0 0 1 1 1 1 1 1 1 0 0 0 0 0 0 0 0 0
0 0 0 0 0 0 0 0 0 0 0 0 0 0 0 0 0 0 0 0 1 1 0 0 0 0 0 0 1 1 1 1 1 1 1 0 0 0 0 0 0 0 0
0 0 0 0 0 0 0 0 0 0 0 0 0 0 0 0 0 0 0 0 0 0 0 0 0 0 0 0 1 1 1 1 1 1 1 0 0 0 0 0 0 0 0
0 0 0 0 0 0 0 0 0 0 0 0 0 0 0 0 0 0 0 0 0 0 0 0 0 0 0 0 0 1 1 1 1 1 1 0 0 0 0 0 0 0 0
1 1 0 0 0 0 0 0 0 0 0 0 0 0 0 0 0 0 0 0 0 0 0 0 0 0 0 0 0 0 0 1 1 1 1 1 0 0 0 0 0 0 0
1 1 1 0 0 0 0 0 0 0 0 0 0 0 0 0 0 0 0 0 0 0 0 0 0 0 0 0 0 0 0 0 1 1 1 1 0 0 0 0 0 0 0
1 1 1 0 0 0 0 0 0 0 0 0 0 0 0 0 0 0 0 0 0 0 0 0 0 0 0 0 0 0 0 0 1 1 1 1 1 0 0 0 0 0 0
1 1 1 1 1 1 1 1 1 1 1 0 0 0 0 0 0 0 0 0 0 0 0 0 0 0 0 0 0 0 0 0 0 1 1 1 1 0 0 0 0 0 0
2 2 1 1 1 1 1 1 1 1 1 1 1 0 0 0 0 0 0 0 0 0 0 0 0 0 0 0 0 0 0 0 0 1 1 1 0 0 0 0 0 0 0
2 2 2 1 1 1 1 1 1 1 1 1 1 1 1 1 1 0 0 0 0 0 0 0 0 0 0 0 0 0 0 0 0 1 1 0 0 0 0 0 0 0 0
2 2 2 1 1 1 1 1 1 1 1 1 1 1 1 1 1 1 0 0 0 0 0 0 0 0 0 0 0 0 0 0 0 0 0 0 0 0 0 0 0 0 0
2 2 2 2 2 2 1 1 1 1 1 1 1 1 1 1 1 1 0 0 0 0 0 0 0 0 0 0 0 0 0 0 0 0 0 0 0 0 0 0 0 0 0
2 2 2 2 2 2 2 1 1 1 1 1 1 1 1 1 1 1 0 0 0 0 0 0 0 0 0 0 0 0 0 0 0 0 0 0 0 0 0 0 0 0 0
1 2 2 2 2 2 1 1 1 1 1 1 1 1 1 1 1 1 1 1 1 1 0 0 0 0 0 0 0 0 0 0 0 0 0 0 0 0 0 0 0 0 0
1 1 1 1 1 1 1 1 1 1 1 1 1 1 1 1 1 1 1 1 1 1 1 1 1 0 0 0 0 0 0 0 0 0 0 0 0 0 0 0 0 0 0
1 1 1 1 1 1 1 1 1 1 1 1 1 1 1 1 1 1 1 1 1 1 1 1 1 1 1 0 0 0 0 0 0 0 0 0 0 0 0 0 0 0 0
0 0 1 0 0 0 1 1 1 1 1 1 1 1 1 1 1 1 1 1 1 1 1 1 1 1 1 0 0 0 0 0 0 0 0 0 0 0 0 0 0 0 0
0 0 0 0 0 0 0 0 0 1 1 1 1 1 1 1 1 1 1 1 1 1 1 1 1 1 1 1 0 0 0 0 0 0 0 0 0 0 0 0 0 0 0
0 0 0 0 0 0 0 0 0 0 0 1 1 1 1 1 1 1 1 1 1 1 1 1 1 1 1 1 1 0 0 0 0 0 0 0 0 0 0 0 0 0 0
0 0 0 0 0 0 0 0 0 0 0 0 0 0 1 1 1 1 1 1 1 1 1 1 1 1 1 1 1 1 1 0 0 0 0 0 0 0 0 0 0 0 0
0 0 0 0 0 0 0 0 0 0 0 0 0 0 0 0 0 1 1 1 1 1 1 1 1 1 1 1 1 1 1 1 1 0 0 0 0 0 0 0 0 0 0
0 0 0 0 0 0 0 0 0 0 0 0 0 0 0 0 0 0 0 0 1 1 1 1 1 1 1 1 1 1 1 1 1 1 1 1 1 1 1 0 0 0 0
0 0 0 0 0 0 0 0 0 0 0 0 0 0 0 0 0 0 0 0 0 0 0 1 1 1 1 1 1 1 1 1 1 1 1 1 1 1 1 0 0 0 0
0 0 0 0 0 0 0 0 0 0 0 0 0 0 0 0 0 0 0 0 0 0 0 0 0 0 0 0 0 0 0 1 1 1 1 1 1 1 1 0 0 0 0
0 0 0 0 0 0 0 0 0 0 0 0 0 0 0 0 0 0 0 0 0 0 0 0 0 0 0 0 0 0 0 0 1 1 1 1 1 1 1 1 0 0 0
0 0 0 0 0 0 0 0 0 0 0 0 0 0 0 0 0 0 0 0 0 0 0 0 0 0 0 0 0 0 0 0 0 0 1 1 1 1 1 1 0 0 0
Wind_Speed
6 5 4 3 6 5 4 5 4 4 5 6 6 6 6 6 7 6 4 6 8 8 10 12 13 15 16 16 17 19 23 24 23 22 21 20 19 18 17 15 14 12 11
6 5 5 5 6 5 5 5 5 5 5 5 6 5 6 7 6 6 6 5 10 8 7 9 12 14 16 16 16 16 20 23 23 23 23 21 20 19 18 16 15 13 13
7 6 6 6 5 6 6 5 6 5 5 5 5 5 5 6 6 5 6 5 4 7 8 8 11 14 15 16 16 15 16 20 23 24 25 23 22 20 19 17 16 14 13
9 7 7 7 5 6 5 4 5 5 4 4 3 3 4 4 5 5 6 5 5 6 5 6 8 12 13 14 15 16 15 16 20 25 26 26 25 23 20 18 16 15 14
10 9 7 6 7 6 4 5 3 5 4 4 4 3 4 4 4 6 6 6 5 6 7 3 8 10 10 11 12 13 14 13 17 25 28 28 27 25 22 18 17 16 15
11 9 8 8 9 6 5 5 4 5 5 5 5 4 5 4 4 3 5 4 4 6 6 7 6 4 6 9 11 12 13 14 15 25 29 29 29 27 23 19 18 17 16
13 9 9 7 8 7 7 7 5 5 5 5 6 5 4 4 2 3 3 3 4 4 5 5 5 6 5 5 8 9 12 13 14 23 28 29 29 27 24 21 19 19 18
14 11 11 9 9 7 8 7 5 5 5 5 6 7 5 3 5 3 2 2 3 3 3 4 6 6 8 6 3 6 9 9 10 17 25 25 27 27 26 23 21 20 18
15 12 12 11 9 9 7 7 7 8 6 5 5 6 5 3 4 3 2 2 2 4 4 4 5 6 8 7 6 2 4 6 6 10 19 25 28 28 27 24 22 20 18
13 12 12 11 10 8 8 9 9 6 6 6 5 6 7 5 6 4 4 4 4 5 4 5 5 5 7 7 4 3 2 3 5 12 21 26 28 28 25 23 22 20 19
10 10 10 8 8 8 8 8 7 7 6 6 6 6 6 5 8 8 7 5 4 3 2 4 3 5 6 6 4 4 1 2 8 15 21 25 27 26 24 22 22 22 21
2 4 7 6 7 7 7 7 7 8 6 6 6 6 6 6 6 7 8 8 6 3 3 2 3 4 4 5 4 4 2 6 11 17 21 24 25 24 23 22 22 22 21
2 2 4 4 5 6 7 7 7 8 7 7 7 7 7 7 7 8 8 9 8 5 2 2 1 3 4 4 3 4 7 11 14 16 17 19 20 20 20 21 21 21 21
3 2 3 3 3 4 5 5 5 7 6 7 9 9 7 8 8 8 8 8 7 7 4 1 1 2 3 4 5 4 10 12 14 13 13 15 16 17 17 17 17 17 18
2 2 3 3 3 2 2 3 4 6 6 8 9 9 9 8 7 7 6 6 6 6 5 2 1 3 3 5 6 6 9 11 12 12 12 13 13 15 16 16 16 15 14
3 3 4 5 4 3 3 4 4 4 5 7 6 8 8 8 7 7 6 6 6 6 5 4 2 3 5 7 8 8 8 11 11 12 13 13 13 14 15 15 15 15 15
4 3 2 4 4 4 4 4 5 4 6 7 7 8 8 9 8 7 7 7 7 7 8 6 2 4 7 9 10 10 9 9 10 14 14 14 14 14 14 15 16 15 15
3 2 1 3 4 4 4 5 5 5 6 6 6 6 8 7 8 7 7 8 7 8 8 8 4 4 7 10 11 11 10 11 11 15 16 14 14 14 15 16 16 15 14
3 2 2 3 4 4 5 5 5 5 5 5 5 6 7 7 7 5 6 6 6 6 5 5 4 3 4 6 9 11 11 8 9 11 14 13 14 14 15 15 15 14 15
4 4 4 4 5 4 4 3 4 4 3 3 4 5 6 6 6 5 4 5 5 5 4 4 4 3 3 3 4 6 7 7 8 8 10 11 13 15 14 14 14 14 14
5 5 4 4 4 4 6 7 2 2 2 2 3 4 6 8 10 8 5 5 4 2 2 2 2 3 3 2 2 2 5 5 5 5 6 8 9 10 11 12 14 14 14
5 5 6 6 7 8 9 10 8 3 4 4 5 4 4 5 7 9 11 12 11 6 4 2 2 2 3 3 2 2 3 5 5 4 4 5 7 6 6 5 2 5 10
4 5 6 6 7 7 7 7 9 5 6 6 6 5 5 4 3 3 4 6 9 10 8 4 4 4 3 3 4 4 4 4 3 1 2 4 5 5 6 6 4 3 1
4 5 6 6 6 6 4 4 3 6 8 8 8 8 7 8 10 9 6 8 10 10 8 7 6 5 4 3 3 2 4 7 5 2 3 3 4 5 6 6 6 5 5
5 4 5 6 7 6 3 5 6 7 8 10 10 10 10 10 13 14 8 9 9 7 7 7 6 4 3 2 1 1 1 3 3 1 2 2 2 3 4 4 6 5 4
3 3 4 6 7 7 3 4 7 5 7 7 7 8 11 11 11 13 10 9 8 7 6 4 3 4 3 4 4 2 2 2 3 1 2 3 2 2 2 2 2 2 3
Wind_Direction
225 231 239 252 252 241 216 224 241 254 267 267 267 260 265 268 271 270 272 231 244 259 270 273 274 272 269 261 248 232 221 216 211 201 196 193 188 185 184 180 178 174 168
238 242 234 238 252 265 272 274 262 258 267 271 265 264 269 279 273 285 286 245 212 221 261 283 290 289 283 275 261 243 227 220 212 200 193 191 188 186 185 180 178 178 174
238 250 256 249 252 255 253 258 272 268 258 260 271 278 275 280 291 296 298 305 272 204 215 258 290 294 288 278 269 255 235 222 214 200 190 188 187 185 183 179 177 179 175
248 254 257 254 252 253 253 247 250 264 273 281 278 278 277 270 267 275 281 284 293 303 257 217 271 287 290 281 270 262 249 229 214 198 190 187 185 181 180 177 177 179 176
249 253 265 272 266 257 251 256 243 270 282 294 274 237 250 249 256 263 290 290 291 297 305 266 238 257 282 290 285 275 264 243 214 196 193 190 184 178 174 172 178 178 178
251 258 261 260 264 255 246 248 259 253 280 284 289 287 262 270 269 282 282 278 284 306 319 332 307 267 250 276 284 283 277 255 219 199 196 192 183 174 166 169 179 180 182
257 251 258 254 253 251 251 252 245 252 256 273 274 263 250 232 238 266 268 304 323 327 324 326 325 329 302 258 264 282 280 261 232 207 202 195 180 165 158 170 182 185 186
246 237 239 248 246 253 253 258 253 260 261 253 280 290 279 221 186 221 238 252 304 310 317 334 335 323 316 310 312 276 281 269 251 215 204 190 168 156 160 176 183 187 189
233 232 234 242 250 252 254 252 250 249 255 261 264 284 293 306 318 209 194 235 263 294 294 328 320 328 321 314 312 275 300 282 253 202 183 167 158 159 169 178 182 187 189
232 232 235 237 247 255 255 252 244 241 244 249 248 253 268 302 292 282 228 196 210 248 283 297 314 328 333 326 324 308 298 272 183 154 153 157 159 165 172 176 181 186 190
235 240 242 242 244 248 248 251 260 246 235 239 245 250 243 235 246 269 278 280 264 271 314 304 326 336 338 329 315 64 82 202 155 147 150 153 158 164 170 177 184 189 192
220 258 262 252 247 243 243 247 254 248 242 243 249 255 254 254 253 257 265 264 269 280 334 335 319 348 351 342 15 62 134 138 132 136 143 149 156 165 173 181 188 193 197
63 351 304 275 253 243 244 241 241 253 243 237 243 253 258 263 269 270 270 275 281 277 249 248 42 2 8 21 58 95 123 123 121 127 139 152 163 171 180 188 193 197 202
59 337 298 284 259 245 246 233 232 235 239 244 255 264 269 263 261 259 264 276 283 283 263 278 74 54 46 65 81 98 118 122 125 135 153 169 177 181 186 192 197 202 206
58 350 332 330 311 290 284 265 242 245 245 245 251 245 250 261 256 260 262 265 266 276 288 239 170 109 117 102 127 126 133 147 156 171 186 194 195 192 192 196 199 203 208
62 21 353 332 325 322 302 287 268 255 265 262 267 277 269 267 266 259 253 251 251 258 266 271 186 161 139 143 158 153 158 170 189 200 208 212 209 203 200 202 204 206 210
61 47 347 312 308 306 305 295 287 285 274 277 274 272 272 272 263 255 247 245 244 243 253 263 227 157 167 170 170 179 178 187 203 213 219 220 218 212 208 209 211 212 215
77 67 307 292 296 303 308 301 289 287 288 289 293 294 288 282 268 254 245 243 243 240 246 254 224 180 186 188 185 197 195 204 214 196 210 217 219 215 213 215 216 217 219
76 60 19 355 342 330 313 298 290 292 305 317 319 312 306 296 280 268 260 257 253 252 238 243 235 190 181 199 196 210 216 223 234 182 196 209 215 216 217 220 221 223 226
46 42 34 18 0 345 333 307 280 280 306 342 358 350 347 345 336 308 285 284 272 260 238 235 233 192 174 195 202 212 216 213 235 195 184 194 199 209 219 224 228 231 234
51 40 37 37 25 16 14 357 9 51 26 43 57 39 36 38 38 25 14 353 325 281 249 244 247 190 171 164 183 233 227 211 222 214 187 187 180 193 199 214 220 224 228
70 58 45 41 39 36 18 6 347 71 55 48 57 61 57 48 55 58 57 49 34 21 -0 4 34 77 73 45 19 319 272 230 219 221 217 208 165 165 165 145 135 203 219
95 69 56 53 55 51 32 25 8 43 61 52 49 56 61 46 28 76 107 106 68 47 26 21 69 67 69 40 17 1 333 290 246 239 261 218 171 153 125 91 58 25 330
83 68 64 69 78 75 43 21 354 70 66 60 55 55 62 52 23 1 52 64 63 52 35 43 59 70 74 80 82 59 353 322 305 301 304 242 199 166 138 115 92 53 37
61 65 71 76 89 95 52 352 329 91 81 71 61 47 39 45 15 354 40 66 70 77 84 67 58 76 91 70 37 31 56 329 302 307 309 274 223 174 154 138 115 108 84
35 30 64 76 87 94 89 1 331 82 83 88 88 85 59 30 15 7 22 41 51 43 39 68 107 167 155 152 193 255 296 265 272 280 336 299 227 194 170 130 93 105 120